Regional Weather Roundup
Issued by NWS Charleston, SC

Current Version | Previous Version | Graphics & Text | Print | Product List | Glossary On
Versions: 1 2 3 4 5 6 7 8 9 10 11 12 13 14 15 16 17 18 19 20 21 22 23 24 25 26 27 28 29 30 31 32 33 34 35 36 37 38 39 40 41 42 43 44 45 46 47 48 49 50
000 ASUS42 KCHS 241726 RWRCHS REGIONAL WEATHER ROUNDUP NATIONAL WEATHER SERVICE CHARLESTON SC 1200 PM EST FRI FEB 24 2017 NOTE: "FAIR" INDICATES FEW OR NO CLOUDS BELOW 12,000 FEET WITH NO SIGNIFICANT WEATHER AND/OR OBSTRUCTIONS TO VISIBILITY. NOT ALL STATIONS ARE QUALITY CONTROLLED. USE DATA WITH CAUTION... ESPECIALLY DEWPOINT OBSERVATIONS. SCZ027-030-031-034>040-042>050-241800- ...SOUTHEAST SOUTH CAROLINA... CITY SKY/WX TMP DP RH WIND PRES REMARKS N CHARLESTON MOSUNNY 79 60 52 NE8 29.88F WATERFRONT PRK N/A 73 64 73 E8 29.87F MOUNT PLEASANT FAIR 75 63 64 E7 29.88F JOHNS ISLAND FAIR 75 63 64 E12 29.88F PINOPOLIS N/A N/A N/A N/A NW7 29.82F MONCKS CORNER PTSUNNY 73 59 60 N5 29.88F SUMMERVILLE FAIR 73 59 60 NE3 29.90S BEAUFORT MCAS SUNNY 76 64 66 NE9 29.88F BEAUFORT ARPT FAIR 75 63 64 E9 29.88S HAZE HILTON HEAD IS SUNNY 73 64 73 NE7 29.89F WALTERBORO PTSUNNY 75 59 57 CALM 29.90F ALLENDALE FAIR 75 59 57 CALM 29.88F ...SOUTHERN MIDLANDS AND PEE DEE... CITY SKY/WX TMP DP RH WIND PRES REMARKS GEORGETOWN FAIR 73 59 60 E8 29.90F KINGSTREE PTSUNNY 75 57 53 N5 29.89F ORANGEBURG MOSUNNY 74 60 61 CALM 29.90F BARNWELL FAIR 77 61 57 E5 29.90F AIKEN FAIR 73 55 53 E5 29.93F MANNING FAIR 73 45 35 MISG 29.90F COLUMBIA MOSUNNY 74 57 55 CALM 29.90F SUMTER MOSUNNY 74 58 56 E5 29.88F FLORENCE SUNNY 74 59 59 VRB6 29.90F MYRTLE BEACH MOSUNNY 75 61 60 E9 29.90F N MYRTLE BEACH SUNNY 74 61 63 SE8 29.89F $$ GAZ063-065-086>088-099>101-113>116-118-119-134>141-150-241800- ...SOUTHEAST GEORGIA... CITY SKY/WX TMP DP RH WIND PRES REMARKS SAVANNAH ARPT MOSUNNY 78 60 53 E10 29.88F HUNTER AAF SUNNY 77 67 71 E9 29.86F FORT STEWART MOSUNNY 77 61 57 NE8 29.86F STATESBORO SUNNY 76 62 62 SE6 29.89F SYLVANIA MOSUNNY N/A N/A N/A E3 29.90F CLAXTON FAIR N/A N/A N/A CALM 29.88F ...CSRA...CENTRAL AND FAR SOUTHEAST GEORGIA... CITY SKY/WX TMP DP RH WIND PRES REMARKS THOMSON SUNNY 76 60 56 SE7 29.94F AUGUSTA-BUSH SUNNY 77 59 53 NW3 29.90F AUGUSTA-DANIEL SUNNY 74 53 48 SE3 29.92F SWAINSBORO FAIR 77 57 50 CALM 29.90F VIDALIA MOSUNNY 79 63 57 N5 29.88F EASTMAN FAIR 79 44 29 CALM 29.91F HAZLEHURST PTSUNNY 76 63 62 CALM 29.87F ALMA MOSUNNY 77 63 61 VRB5 29.88S WAYCROSS CLOUDY 82 68 62 SE7 29.86F JESUP FAIR 79 61 53 SE5 29.87F BAXLEY FAIR 77 64 65 E5 29.87F BRUNSWICK SUNNY 77 66 69 E14 29.88S SAINT SIMONS SUNNY 73 64 73 NE12 29.87F $$ SCZ027-028-034-036>038-045-046-048>050-GAZ119-141-241800- ...LAKE AND SUPPLEMENTAL COASTAL OBSERVATIONS... STATION/POSITION TIME TEMP WIND PRES WAVE SWELL AIR SEA DIR/SP/G HT/PER HT/PER/DIR (UTC) (F) (DEG/KT/KT) (MB) (FT/S) (FT/S/D) WINYAH BAY 1645 67 60/ 12 1012.0F LAKE MURRAY 1650 67 220/ 2/ 2 1012.5F ACE BASIN NERRS 1630 76 100/ 3 1012.0S FORT PULASKI 1700 67 62 60/ 12/ 15 1012.2 SAPELO ISLAND 1700 74 70/ 12 1011.0 $$ ANZ835-935-AMZ111-154-330-350-352-354-370-450-454-472-241800- ...C-MAN AND BUOY OBSERVATIONS... STATION/POSITION TIME TEMP WIND PRES WAVE SWELL AIR SEA DIR/SP/G HT/PER HT/PER/DIR (UTC) (F) (DEG/KT/KT) (MB) (FT/S) (FT/S/D) BUOY 41004 1650 68 70 20/ 14/ 16 1011.3F 9/11 8/110/11 BUOY 41008 1650 63 62 20/ 10/ 14 1011.1F 5/11 5/ 80/11 FOLLY BEACH CMAN 1700 65 70/ 10/ 11 1012.6F CAPERS NEARSHORE 1608 63 60 50/ 8/ 12 1012.6S FRIPP NEARSHORE 1708 64 62 60/ 10/ 12 1011.7F STATION/POSITION TIME TEMP WIND PRES WAVE SWELL AIR SEA DIR/SP/G HT/PER HT/PER/DIR (UTC) (F) (DEG/KT/KT) (MB) (FT/S) (FT/S/D) 5E ST. MARYS GA 1700 64 N/A 5/11 3/100/11 FRYING PAN BUOY 1710 69 72 20/ 14/ 17 1011.5 BUOY 41025 1650 72 74 130/ 17/ 21 1012.8F 7/ 9 5/140/ 9 CAPE LOOKOUT NC 1700 67 40/ 8/ 9 1012.2F BUOY 41002 1650 68 70 140/ 12/ 17 1007.1F 11/ 8 10/100/ 8 BUOY 41010 NOT AVBL ST AUGUSTINE FL 1700 66 67 360/ 14/ 16 1011.9F $$

USA.gov is the U.S. government's official web portal to all federal, state and local government web resources and services.